TimeCDT,TemperatureF,Dew PointF,Humidity,Sea Level PressureIn,VisibilityMPH,Wind Direction,Wind SpeedMPH,Gust SpeedMPH,PrecipitationIn,Events,Conditions,WindDirDegrees,DateUTC
12:15 AM,57.2,57.2,100,29.63,10.0,WSW,8.1,-,N/A,,Overcast,240,2012-10-18 05:15:00
12:35 AM,57.2,57.2,100,29.62,10.0,West,9.2,-,N/A,,Mostly Cloudy,260,2012-10-18 05:35:00
12:55 AM,57.2,55.4,94,29.65,10.0,West,10.4,17.3,N/A,,Partly Cloudy,270,2012-10-18 05:55:00
1:15 AM,57.2,53.6,88,29.66,10.0,West,10.4,-,N/A,,Partly Cloudy,280,2012-10-18 06:15:00
1:35 AM,55.4,53.6,94,29.66,10.0,WNW,9.2,-,N/A,,Partly Cloudy,290,2012-10-18 06:35:00
1:55 AM,55.4,51.8,88,29.67,10.0,West,8.1,-,N/A,,Clear,270,2012-10-18 06:55:00
2:15 AM,55.4,50.0,82,29.68,10.0,West,8.1,-,N/A,,Clear,260,2012-10-18 07:15:00
2:35 AM,53.6,50.0,88,29.68,10.0,West,10.4,-,N/A,,Clear,270,2012-10-18 07:35:00
2:55 AM,53.6,50.0,88,29.68,10.0,West,8.1,-,N/A,,Clear,260,2012-10-18 07:55:00
3:15 AM,53.6,50.0,88,29.69,10.0,West,8.1,-,N/A,,Clear,260,2012-10-18 08:15:00
3:35 AM,51.8,48.2,88,29.70,10.0,WSW,8.1,-,N/A,,Clear,250,2012-10-18 08:35:00
3:55 AM,50.0,48.2,94,29.70,10.0,West,9.2,-,N/A,,Clear,260,2012-10-18 08:55:00
4:15 AM,51.8,48.2,88,29.71,10.0,West,10.4,-,N/A,,Clear,260,2012-10-18 09:15:00
4:35 AM,51.8,48.2,88,29.71,10.0,West,9.2,-,N/A,,Clear,260,2012-10-18 09:35:00
4:55 AM,51.8,48.2,88,29.71,10.0,West,8.1,-,N/A,,Clear,260,2012-10-18 09:55:00
5:15 AM,51.8,48.2,88,29.70,10.0,WSW,8.1,-,N/A,,Clear,250,2012-10-18 10:15:00
5:35 AM,50.0,48.2,94,29.70,10.0,WSW,8.1,-,N/A,,Mostly Cloudy,240,2012-10-18 10:35:00
5:55 AM,50.0,48.2,94,29.71,10.0,WSW,10.4,-,N/A,,Mostly Cloudy,240,2012-10-18 10:55:00
6:15 AM,50.0,48.2,94,29.72,10.0,WSW,9.2,-,N/A,,Mostly Cloudy,250,2012-10-18 11:15:00
6:35 AM,50.0,46.4,87,29.72,10.0,WSW,6.9,-,N/A,,Scattered Clouds,250,2012-10-18 11:35:00
6:55 AM,50.0,46.4,87,29.74,10.0,WSW,6.9,-,N/A,,Scattered Clouds,250,2012-10-18 11:55:00
7:15 AM,50.0,46.4,87,29.75,10.0,SW,8.1,-,N/A,,Partly Cloudy,230,2012-10-18 12:15:00
7:35 AM,50.0,46.4,87,29.75,10.0,SW,9.2,-,N/A,,Clear,230,2012-10-18 12:35:00
7:55 AM,50.0,46.4,87,29.75,10.0,SW,8.1,-,N/A,,Clear,230,2012-10-18 12:55:00
8:15 AM,50.0,46.4,87,29.75,10.0,SW,5.8,-,N/A,,Clear,220,2012-10-18 13:15:00
8:35 AM,53.6,46.4,77,29.75,10.0,SW,9.2,-,N/A,,Clear,220,2012-10-18 13:35:00
8:55 AM,53.6,48.2,82,29.76,10.0,SW,8.1,-,N/A,,Clear,220,2012-10-18 13:55:00
9:15 AM,55.4,48.2,77,29.77,10.0,SW,9.2,-,N/A,,Clear,220,2012-10-18 14:15:00
9:35 AM,55.4,48.2,77,29.77,10.0,SW,11.5,16.1,N/A,,Clear,230,2012-10-18 14:35:00
9:55 AM,57.2,48.2,72,29.77,10.0,SW,11.5,16.1,N/A,,Clear,230,2012-10-18 14:55:00
10:15 AM,57.2,46.4,67,29.77,10.0,WSW,12.7,18.4,N/A,,Clear,240,2012-10-18 15:15:00
10:35 AM,59.0,46.4,63,29.77,10.0,SW,8.1,20.7,N/A,,Clear,220,2012-10-18 15:35:00
10:55 AM,59.0,44.6,59,29.76,10.0,SW,16.1,21.9,N/A,,Clear,230,2012-10-18 15:55:00
11:15 AM,60.8,44.6,55,29.77,10.0,WSW,16.1,26.5,N/A,,Clear,240,2012-10-18 16:15:00
11:35 AM,62.6,44.6,52,29.77,10.0,WSW,15.0,28.8,N/A,,Clear,240,2012-10-18 16:35:00
11:55 AM,62.6,42.8,48,29.77,10.0,WSW,17.3,25.3,N/A,,Clear,240,2012-10-18 16:55:00
12:15 PM,62.6,39.2,42,29.76,10.0,WSW,16.1,25.3,N/A,,Clear,240,2012-10-18 17:15:00
12:35 PM,64.4,39.2,40,29.76,10.0,SW,17.3,28.8,N/A,,Clear,230,2012-10-18 17:35:00
12:55 PM,64.4,39.2,40,29.75,10.0,WSW,15.0,27.6,N/A,,Clear,240,2012-10-18 17:55:00
1:15 PM,64.4,39.2,40,29.73,10.0,SW,16.1,25.3,N/A,,Clear,220,2012-10-18 18:15:00
1:35 PM,64.4,39.2,40,29.73,10.0,WSW,21.9,28.8,N/A,,Clear,250,2012-10-18 18:35:00
1:55 PM,64.4,39.2,40,29.72,10.0,WSW,20.7,26.5,N/A,,Clear,240,2012-10-18 18:55:00
2:15 PM,66.2,33.8,30,29.71,10.0,WSW,20.7,34.5,N/A,,Clear,240,2012-10-18 19:15:00
2:35 PM,64.4,35.6,34,29.70,10.0,SW,17.3,27.6,N/A,,Clear,230,2012-10-18 19:35:00
2:55 PM,66.2,32.0,28,29.70,10.0,WSW,23.0,34.5,N/A,,Clear,240,2012-10-18 19:55:00
3:15 PM,64.4,32.0,30,29.70,10.0,WSW,21.9,36.8,N/A,,Partly Cloudy,240,2012-10-18 20:15:00
3:35 PM,66.2,32.0,28,29.70,10.0,West,17.3,27.6,N/A,,Partly Cloudy,260,2012-10-18 20:35:00
3:55 PM,64.4,30.2,28,29.70,10.0,West,18.4,26.5,N/A,,Partly Cloudy,260,2012-10-18 20:55:00
4:15 PM,64.4,30.2,28,29.70,10.0,West,17.3,27.6,N/A,,Clear,260,2012-10-18 21:15:00
4:35 PM,64.4,30.2,28,29.71,10.0,WSW,24.2,34.5,N/A,,Clear,250,2012-10-18 21:35:00
4:55 PM,62.6,32.0,32,29.72,10.0,West,24.2,31.1,N/A,,Clear,260,2012-10-18 21:55:00
5:15 PM,62.6,32.0,32,29.72,10.0,WSW,20.7,25.3,N/A,,Clear,250,2012-10-18 22:15:00
5:35 PM,60.8,32.0,34,29.72,10.0,West,13.8,20.7,N/A,,Clear,260,2012-10-18 22:35:00
5:55 PM,59.0,32.0,36,29.73,10.0,WSW,16.1,23.0,N/A,,Clear,250,2012-10-18 22:55:00
6:15 PM,57.2,32.0,38,29.73,10.0,WSW,11.5,17.3,N/A,,Clear,250,2012-10-18 23:15:00
6:35 PM,57.2,32.0,38,29.73,10.0,West,15.0,19.6,N/A,,Clear,260,2012-10-18 23:35:00
6:55 PM,55.4,32.0,41,29.74,10.0,WSW,9.2,-,N/A,,Clear,250,2012-10-18 23:55:00
7:15 PM,55.4,32.0,41,29.74,10.0,WSW,6.9,-,N/A,,Clear,240,2012-10-19 00:15:00
7:35 PM,55.4,32.0,41,29.74,10.0,SW,5.8,-,N/A,,Clear,230,2012-10-19 00:35:00
7:55 PM,53.6,32.0,44,29.74,10.0,WSW,6.9,-,N/A,,Clear,240,2012-10-19 00:55:00
8:35 PM,53.6,32.0,44,29.75,10.0,SW,5.8,-,N/A,,Clear,230,2012-10-19 01:35:00
9:15 PM,51.8,32.0,47,29.75,10.0,SW,6.9,-,N/A,,Clear,220,2012-10-19 02:15:00
9:35 PM,50.0,33.8,54,29.74,10.0,SSW,5.8,-,N/A,,Clear,200,2012-10-19 02:35:00
10:15 PM,50.0,32.0,50,29.73,10.0,SSW,8.1,-,N/A,,Clear,200,2012-10-19 03:15:00
10:35 PM,51.8,32.0,47,29.73,10.0,SSW,8.1,-,N/A,,Clear,210,2012-10-19 03:35:00
10:55 PM,50.0,32.0,50,29.72,10.0,SSW,10.4,-,N/A,,Clear,200,2012-10-19 03:55:00